Flag for Germany Weather past 2 weeks in Witten, North Rhine-Westphalia, Germany

Now
61 °F

Scattered clouds.


Feels Like: 61 °F
Forecast: 44 / 58 °F
Wind: 16 mph from Southwest

Location: Dortmund / Wickede

Current Time: Oct 20, 2014 at 2:27:21 PM

Latest Report: Oct 20, 2014 at 1:50 PM


Visibility: N/A

Pressure: 30.01 "Hg

Humidity: 68%

Dew point: 50 °F

Location of WittenLocation

Historic Weather in Witten — Graph

°F

Witten temperature yesterday

Maximum temperature yesterday: 73 °F (at 2:20 PM)
Minimum temperature yesterday: 59 °F (at 6:50 AM)
Average temperature yesterday: 66 °F

Past Weeks' High & Low Weather Summary

 TemperatureHumidityPressure
High73 °F (Oct 19, 2:20 PM)100% (Oct 6, 6:20 AM)30.12 "Hg (Oct 6, 6:20 AM)
Low45 °F (Oct 6, 5:50 AM)49% (Oct 10, 2:50 PM)29.53 "Hg (Oct 7, 9:20 AM)
Average58 °F76%29.83 "Hg
* Reported Oct 5 1:20 PM — Oct 20 1:20 PM, Witten, Weather by CustomWeather, © 2014

Note: Actual official high and low records may vary slightly from our data, if they occured in-between our weather recording intervals... More about our weather records

Advertising

Witten weather history for previous 24 hours

 ConditionsComfort  
Time TempWeatherWind HumidityBarometerVisibility
1:20 PM
Oct 20
59 °FScattered clouds.20 mph72%30.01 "HgN/A
12:50 PM59 °FScattered clouds.18 mph72%30.04 "HgN/A
12:20 PM59 °FScattered clouds.20 mph72%30.04 "HgN/A
11:50 AM59 °FPartly sunny.16 mph77%30.04 "HgN/A
11:20 AM57 °FPartly sunny.15 mph77%30.01 "HgN/A
10:50 AM57 °FPartly sunny.16 mph77%30.04 "HgN/A
10:20 AM57 °FPartly sunny.14 mph77%30.01 "HgN/A
9:50 AM57 °FPartly sunny.15 mph77%30.01 "HgN/A
9:20 AM57 °FPartly sunny.16 mph77%30.01 "HgN/A
8:50 AM55 °FPartly cloudy.15 mph82%30.01 "HgN/A
8:20 AM57 °FPassing clouds.15 mph77%30.01 "HgN/A
7:50 AM55 °FPassing clouds.16 mph82%30.01 "HgN/A
7:20 AM57 °FPassing clouds.17 mph77%30.01 "HgN/A
6:50 AM57 °FPassing clouds.17 mph77%30.01 "HgN/A
5:20 AM57 °FPassing clouds.16 mph77%30.01 "HgN/A
10:50 PM
Oct 19
61 °FClear.13 mph83%29.98 "Hg10 mi
10:20 PM63 °FClear.14 mph83%29.98 "Hg10 mi
9:50 PM63 °FClear.14 mph88%29.98 "Hg10 mi
9:20 PM63 °FPassing clouds.13 mph83%29.98 "HgN/A
8:50 PM61 °FLight rain. Passing clouds.17 mph88%29.95 "Hg6 mi
8:20 PM66 °FPassing clouds.14 mph68%29.95 "HgN/A
7:50 PM66 °FClear.16 mph68%29.95 "Hg10 mi
7:20 PM66 °FScattered clouds.14 mph68%29.95 "HgN/A
6:50 PM66 °FSunny.14 mph68%29.95 "Hg10 mi
6:20 PM68 °FSunny.17 mph64%29.95 "Hg10 mi
5:50 PM70 °FSunny.16 mph64%29.95 "Hg10 mi
5:20 PM70 °FScattered clouds.16 mph64%29.95 "HgN/A
4:50 PM72 °FScattered clouds.20 mph61%29.95 "HgN/A
4:20 PM72 °FPassing clouds.15 mph61%29.95 "HgN/A
3:50 PM73 °FSunny.17 mph57%29.95 "Hg10 mi
3:20 PM73 °FSunny.18 mph53%29.95 "Hg10 mi
2:50 PM73 °FSunny.17 mph53%29.95 "Hg10 mi
2:20 PM73 °FSunny.15 mph53%29.95 "Hg10 mi
Weather by CustomWeather, © 2014

See weather overviewHow to use our weather pages